EW4888 Weather Reports


Display with metric or nautical units.
time (UTC)temp
F
wind
direction
speed
MPH
gust
MPH
rain 1hr
in
rain 24hr
in
rain mn
in
humidity
%
barometer
mb
20260504060121 48 203 0.0 0.0 0.00 0.06 0.00 93 1008.2
20260504050122 49 270 0.0 0.0 0.00 0.06 0.00 88 1008.8
20260504045121 50 225 0.0 0.0 0.00 0.06 0.06 86 1008.8
20260504044121 51 270 0.0 0.0 0.00 0.06 0.06 85 1008.9
20260504043121 51 135 0.0 0.0 0.00 0.06 0.06 82 1008.9
20260504042142 52 135 0.0 0.0 0.00 0.06 0.06 81 1008.8
20260504041121 53 158 0.0 0.0 0.00 0.06 0.06 81 1009.0
20260504040121 54 178 2.0 3.0 0.00 0.06 0.06 79 1009.0
20260504035122 55 188 2.0 3.0 0.00 0.06 0.06 78 1009.0
20260504034123 56 180 3.0 4.0 0.00 0.06 0.06 77 1009.1
20260504033142 55 180 2.0 3.0 0.00 0.06 0.06 77 1009.2
20260504032121 57 202 2.0 4.0 0.00 0.06 0.06 74 1009.1
20260504031121 59 217 3.0 4.0 0.00 0.06 0.06 71 1009.2
20260504030121 59 210 3.0 5.0 0.00 0.06 0.06 71 1009.1
20260504025123 59 226 3.0 4.0 0.00 0.06 0.06 71 1009.1
20260504024124 59 222 3.0 4.0 0.00 0.06 0.06 71 1009.0
20260504023121 59 226 3.0 4.0 0.00 0.06 0.06 70 1009.1
20260504022142 60 234 4.0 5.0 0.00 0.06 0.06 69 1008.9
20260504021121 60 222 4.0 4.0 0.00 0.06 0.06 68 1008.9
20260504020121 60 243 4.0 5.0 0.00 0.06 0.06 67 1009.0
20260504015121 60 237 4.0 6.0 0.00 0.06 0.06 67 1009.0
20260504014143 61 233 5.0 6.0 0.00 0.06 0.06 66 1008.9
20260504013143 61 240 5.0 6.0 0.00 0.06 0.06 65 1008.8
20260504012121 61 238 4.0 7.0 0.00 0.06 0.06 65 1008.6
20260504011125 62 231 4.0 5.0 0.00 0.06 0.06 65 1008.7
20260504010124 63 245 4.0 6.0 0.00 0.06 0.06 62 1008.7
20260504005143 63 226 4.0 7.0 0.00 0.06 0.06 62 1008.7
20260504004122 64 232 5.0 7.0 0.00 0.06 0.06 61 1008.7
20260504003142 65 225 5.0 7.0 0.00 0.06 0.06 59 1008.6
20260504002122 65 252 5.0 7.0 0.00 0.06 0.06 59 1008.6
20260504001121 66 251 6.0 7.0 0.00 0.06 0.06 57 1008.6
20260504000121 67 241 6.0 9.0 0.00 0.06 0.06 56 1008.7
20260503235121 67 245 7.0 9.0 0.00 0.06 0.06 55 1008.7
20260503234121 67 241 5.0 7.0 0.00 0.06 0.06 56 1008.8
20260503233143 68 239 6.0 8.0 0.00 0.06 0.06 55 1008.8
20260503232123 68 245 7.0 10.0 0.00 0.06 0.06 54 1008.9
20260503231143 68 247 8.0 10.0 0.00 0.06 0.06 54 1008.9
20260503230121 68 248 9.0 13.0 0.00 0.06 0.06 52 1009.0
20260503225121 69 245 8.0 12.0 0.00 0.06 0.06 50 1009.0
20260503224121 68 244 8.0 11.0 0.00 0.06 0.06 51 1009.1
20260503223121 69 250 12.0 16.0 0.00 0.06 0.06 48 1009.1
20260503222121 69 247 11.0 15.0 0.00 0.06 0.06 48 1009.1
20260503221121 68 243 10.0 17.0 0.00 0.06 0.06 49 1009.3
20260503220122 69 239 9.0 15.0 0.00 0.06 0.06 49 1009.3
20260503215122 69 256 10.0 15.0 0.00 0.06 0.06 49 1009.2
20260503214121 67 228 10.0 15.0 0.00 0.06 0.06 49 1009.4
20260503213121 68 228 11.0 18.0 0.00 0.06 0.06 49 1009.4
20260503212121 68 242 12.0 19.0 0.00 0.06 0.06 49 1009.3
20260503211121 67 249 14.0 18.0 0.00 0.06 0.06 49 1009.4
20260503210142 66 243 14.0 18.0 0.00 0.06 0.06 49 1009.4
20260503205121 67 237 14.0 18.0 0.00 0.06 0.06 46 1009.5
20260503204126 67 239 13.0 19.0 0.00 0.06 0.06 49 1009.7
20260503203123 68 231 12.0 18.0 0.00 0.06 0.06 45 1009.8
20260503202123 68 253 15.0 21.0 0.00 0.06 0.06 47 1010.3
20260503201123 67 218 12.0 19.0 0.00 0.06 0.06 47 1010.0
20260503200122 67 205 11.0 18.0 0.02 0.06 0.06 47 1010.0
20260503195143 68 211 12.0 17.0 0.02 0.06 0.06 45 1010.2
20260503194122 68 223 12.0 20.0 0.03 0.06 0.06 45 1010.4
20260503193121 68 200 17.0 25.0 0.03 0.06 0.06 45 1010.2
20260503192121 68 202 16.0 24.0 0.05 0.06 0.06 44 1010.4
20260503191121 67 193 19.0 28.0 0.06 0.06 0.06 44 1010.5
20260503190123 66 194 17.0 24.0 0.04 0.04 0.04 47 1010.7
20260503185123 65 190 17.0 24.0 0.04 0.04 0.04 46 1010.7
20260503184122 65 201 17.0 22.0 0.03 0.03 0.03 46 1011.0
20260503183121 64 194 18.0 24.0 0.03 0.03 0.03 49 1011.0
20260503182122 64 192 18.0 25.0 0.01 0.01 0.01 49 1011.4
20260503181142 63 196 17.0 25.0 0.00 0.00 0.00 49 1011.3
20260503180122 64 186 18.0 24.0 0.00 0.00 0.00 50 1012.0
20260503175122 63 203 16.0 22.0 0.00 0.00 0.00 52 1012.0
20260503174125 64 191 17.0 24.0 0.00 0.00 0.00 52 1012.3
20260503173122 62 191 16.0 21.0 0.00 0.00 0.00 52 1012.7
20260503172121 61 215 15.0 18.0 0.00 0.00 0.00 53 1012.9
20260503171122 62 201 12.0 17.0 0.00 0.00 0.00 54 1013.7
20260503170121 61 186 13.0 19.0 0.00 0.00 0.00 52 1014.2
20260503160122 57 200 11.0 15.0 0.00 0.00 0.00 58 1014.7
20260503150142 57 196 9.0 11.0 0.00 0.00 0.00 60 1016.0
20260503140122 52 191 10.0 12.0 0.00 0.00 0.00 67 1016.4
20260503131122 49 190 8.0 11.0 0.00 0.00 0.00 73 1017.1
20260503130122 49 203 7.0 12.0 0.00 0.00 0.00 73 1016.9
20260503120122 47 195 8.0 10.0 0.00 0.00 0.00 76 1016.9
20260503110143 44 201 8.0 9.0 0.00 0.00 0.00 77 1016.8
20260503100122 45 200 8.0 10.0 0.00 0.00 0.00 76 1017.0
20260503090143 45 195 7.0 9.0 0.00 0.00 0.00 74 1017.1
20260503081122 44 197 7.0 8.0 0.00 0.00 0.00 75 1017.3
20260503080122 44 201 7.0 8.0 0.00 0.00 0.00 74 1017.3
20260503072122 43 195 5.0 6.0 0.00 0.00 0.00 75 1017.4
20260503071122 43 195 5.0 6.0 0.00 0.00 0.00 75 1017.5
20260503070122 43 189 4.0 6.0 0.00 0.00 0.00 74 1017.6